Flag for U.S.A. Weather past 2 weeks in Las Cruces, New Mexico, U.S.A.

Now
40 °F

Clear.


Feels Like: 35 °F
Forecast: 39 / 74 °F
Wind: 6 mph from Northwest

Location: Las Cruces International

Current Time: Apr 18, 2015 at 3:43:05 AM

Latest Report: Apr 18, 2015 at 3:15 AM


Visibility: 10 mi

Pressure: 30.02 "Hg

Humidity: 27%

Dew point: 8 °F

Location of Las CrucesLocation

Historic Weather in Las Cruces — Graph

°F

Las Cruces temperature yesterday

Maximum temperature yesterday: 68 °F (at 4:15 PM)
Minimum temperature yesterday: 31 °F (at 6:35 AM)
Average temperature yesterday: 52 °F

Past Weeks' High & Low Weather Summary

 TemperatureHumidityPressure
High82 °F (Apr 7, 3:55 PM)95% (Apr 14, 6:55 AM)30.29 "Hg (Apr 14, 6:55 AM)
Low31 °F (Apr 17, 6:35 AM)6% (Apr 16, 5:55 PM)29.82 "Hg (Apr 15, 5:15 PM)
Average61 °F32%30.03 "Hg
* Reported Apr 3 2:15 AM — Apr 18 2:15 AM, Las Cruces, Weather by CustomWeather, © 2015

Note: Actual official high and low records may vary slightly from our data, if they occured in-between our weather recording intervals... More about our weather records

Advertising

Las Cruces weather history for previous 24 hours

 ConditionsComfort  
Time TempWeatherWind HumidityBarometerVisibility
2:15 AM
Sat, Apr 18
45 °FClear.7 mph22%30.03 "Hg10 mi
1:55 AM46 °FClear.8 mph21%30.02 "Hg10 mi
1:35 AM47 °FClear.8 mph19%30.02 "Hg10 mi
1:15 AM47 °FClear.9 mph19%30.03 "Hg10 mi
12:55 AM47 °FClear.7 mph19%30.03 "Hg10 mi
12:15 AM49 °FClear.9 mph17%30.03 "Hg10 mi
11:55 PM
Fri, Apr 17
51 °FClear.9 mph16%30.03 "Hg10 mi
11:35 PM52 °FClear.9 mph15%30.03 "Hg10 mi
10:55 PM52 °FClear.10 mph15%30.03 "Hg10 mi
10:35 PM53 °FClear.12 mph14%30.04 "Hg10 mi
10:15 PM54 °FClear.8 mph14%30.04 "Hg10 mi
9:55 PM56 °FClear.9 mph13%30.03 "Hg10 mi
9:15 PM58 °FClear.12 mph12%30.03 "Hg10 mi
8:55 PM58 °FClear.14 mph12%30.01 "Hg10 mi
8:35 PM59 °FSunny.17 mph11%30.00 "Hg10 mi
8:15 PM60 °FSunny.14 mph10%30.00 "Hg10 mi
7:55 PM61 °FSunny.16 mph11%29.99 "Hg10 mi
7:35 PM62 °FSunny.14 mph10%29.99 "Hg10 mi
7:15 PM64 °FSunny.18 mph9%29.99 "Hg10 mi
6:55 PM65 °FSunny.23 mph10%29.98 "Hg10 mi
6:35 PM66 °FSunny.21 mph9%29.98 "Hg10 mi
6:15 PM66 °FSunny.17 mph10%29.97 "Hg10 mi
5:55 PM67 °FSunny.26 mph9%29.97 "Hg10 mi
5:35 PM68 °FSunny.22 mph9%29.98 "Hg10 mi
5:15 PM68 °FSunny.20 mph9%29.98 "Hg10 mi
4:55 PM68 °FSunny.22 mph9%29.97 "Hg10 mi
4:35 PM68 °FSunny.16 mph9%29.98 "Hg10 mi
4:15 PM68 °FSunny.18 mph9%29.98 "Hg10 mi
3:55 PM68 °FSunny.16 mph9%29.98 "Hg10 mi
3:15 PM66 °FSunny.23 mph10%30.00 "Hg10 mi
2:55 PM67 °FSunny.13 mph10%30.01 "Hg10 mi
2:35 PM67 °FSunny.22 mph10%30.02 "Hg10 mi
2:15 PM66 °FSunny.16 mph10%30.03 "Hg10 mi
1:55 PM64 °FSunny.20 mph11%30.04 "Hg10 mi
1:35 PM65 °FSunny.21 mph11%30.05 "Hg10 mi
1:15 PM63 °FSunny.9 mph12%30.05 "Hg10 mi
12:55 PM63 °FSunny.13 mph11%30.06 "Hg10 mi
12:35 PM62 °FSunny.16 mph11%30.07 "Hg10 mi
12:15 PM61 °FSunny.9 mph11%30.07 "Hg10 mi
11:55 AM60 °FSunny.16 mph11%30.08 "Hg10 mi
11:35 AM60 °FSunny.13 mph11%30.08 "Hg10 mi
11:15 AM58 °FSunny.6 mph10%30.09 "Hg10 mi
10:55 AM57 °FSunny.9 mph11%30.09 "Hg10 mi
10:35 AM56 °FSunny.8 mph11%30.10 "Hg10 mi
10:15 AM55 °FSunny.7 mph12%30.09 "Hg10 mi
9:55 AM54 °FSunny.No wind14%30.10 "Hg10 mi
9:35 AM51 °FSunny.No wind15%30.10 "Hg10 mi
9:15 AM49 °FSunny.3 mph16%30.10 "Hg10 mi
8:55 AM49 °FSunny.3 mph16%30.10 "Hg10 mi
8:35 AM48 °FSunny.No wind15%30.09 "Hg10 mi
8:15 AM46 °FSunny.No wind16%30.09 "Hg10 mi
7:55 AM43 °FSunny.No wind18%30.09 "Hg10 mi
7:35 AM38 °FClear.No wind22%30.08 "Hg10 mi
7:15 AM34 °FClear.5 mph26%30.08 "Hg10 mi
6:55 AM32 °FClear.5 mph26%30.08 "Hg10 mi
6:35 AM31 °FClear.8 mph27%30.07 "Hg10 mi
6:15 AM33 °FClear.9 mph25%30.06 "Hg10 mi
5:55 AM33 °FClear.8 mph27%30.06 "Hg10 mi
5:35 AM32 °FClear.7 mph27%30.05 "Hg10 mi
5:15 AM33 °FClear.5 mph26%30.05 "Hg10 mi
4:55 AM34 °FClear.7 mph24%30.05 "Hg10 mi
4:35 AM34 °FClear.9 mph25%30.05 "Hg10 mi
4:15 AM36 °FClear.6 mph22%30.05 "Hg10 mi
3:55 AM36 °FClear.5 mph22%30.05 "Hg10 mi
3:35 AM36 °FClear.7 mph23%30.05 "Hg10 mi
3:15 AM35 °FClear.8 mph24%30.06 "Hg10 mi
Weather by CustomWeather, © 2015

See weather overviewHow to use our weather pages